sat.trackr.live / text

‹ back to catalog

STARLINK-4771

NORAD 53833 · 2022-114R

PAYLOAD ACTIVE UNKNOWN

§ Identity

Operator
Country
US
Launch date
2022-09-19
Launch site
AFETR
Launch vehicle
Mass (kg)
RCS (m²)

Purposes: comms

External: N2YO · Heavens-Above · Gunter

§ Orbital elements

Epoch: 2026-05-25T04:48:32.138208Z

Period
95.44 min
Inclination
53.2141°
Eccentricity
0.0001316
Mean motion
15.08848024 rev/d
Perigee alt
538.8 km
Apogee alt
540.6 km
Semi-major
6,917.9 km
B*
3.8004e-6
RAAN
320.5268°
Arg perigee
84.9699°
Mean anomaly
275.1443°
Rev number
20,438

§ Raw data

STARLINK-47711 53833U 22114R   26145.20037197 -.00000227  00000+0  38004-5 0  99902 53833  53.2141 320.5268 0001316  84.9699 275.1443 15.08848024204385

JSON: /api/v1/satellites/53833 · /tle

For live sub-satellite position, see the globe view (requires WebGL).

§ Visibility from observer

Set your observer location to see the next 7 days of passes ≥ 10°. The values pass through the URL so the page stays shareable.

No JS? Fill the form by hand. The geolocation button needs JavaScript.